Jacksonville, FL

2:46 PM EST on February 24, 2017 (GMT -0500)
Craig Municipal

Weather History for KCRG - May, 2013

Change the Weather History Date:

Thursday, May 30, 2013

  Actual Average Record
Temperature  
Mean Temperature 78 °F -  
Max Temperature 86 °F 85 °F 96 °F (2004)
Min Temperature 73 °F 67 °F 62 °F (2007)
Cooling Degree Days 14    
Growing Degree Days 28 (Base 50)    
Moisture  
Dew Point 71 °F    
Average Humidity 75    
Maximum Humidity 89    
Minimum Humidity 58    
Precipitation  
Precipitation 0.14 in - - ()
Sea Level Pressure  
Sea Level Pressure 30.15 in    
Wind  
Wind Speed 8 mph (ESE)    
Max Wind Speed 18 mph    
Max Gust Speed 24 mph    
Visibility 9 miles    
Events Rain    
Averages and records for this station are not official NWS values.
T = Trace of Precipitation, MM = Missing Value Source: NWS Daily Summary

Daily Weather History Graph

Daily Weather History Graph

Search for Another Location

Airport or City:

Trip Planner

Search our weather history database for the weather conditions in past years. The results will help you decide how hot, cold, wet, or windy it might be!

Date:

Astronomy

May. 30, 2013 Rise Set
Actual Time 6:25 AM EDT 8:22 PM EDT
Civil Twilight 5:58 AM EDT 8:49 PM EDT
Nautical Twilight 5:25 AM EDT 9:22 PM EDT
Astronomical Twilight 4:50 AM EDT 9:57 PM EDT
Moon 12:36 AM EDT (5/30) 12:15 PM EDT (5/30)
Length of Visible Light 14h 51m
Length of Day
13h 57m
Waning Gibbous, 62% of the Moon is Illuminated
May 30
Waning Gibbous
May 31
Last Quarter
Jun 8
New
Jun 16
First Quarter
Jun 23
Full

Hourly Weather History & Observations

Time (EDT) Temp. Heat Index Dew Point Humidity Pressure Visibility Wind Dir Wind Speed Gust Speed Precip Events Conditions
12:53 AM 77.0 °F - 71.1 °F 82% 30.16 in 10.0 mi ESE 5.8 mph - N/A   Clear
1:53 AM 77.0 °F - 71.1 °F 82% 30.14 in 10.0 mi ESE 8.1 mph - N/A   Clear
2:53 AM 77.0 °F - 71.1 °F 82% 30.12 in 10.0 mi ESE 6.9 mph - N/A   Scattered Clouds
3:53 AM 77.0 °F - 70.0 °F 79% 30.12 in 10.0 mi SE 8.1 mph - 0.00 in   Scattered Clouds
4:20 AM 77.0 °F - 71.6 °F 83% 30.12 in 10.0 mi SE 5.8 mph - N/A   Mostly Cloudy
4:34 AM 77.0 °F - 71.6 °F 83% 30.13 in 10.0 mi SE 5.8 mph - N/A   Mostly Cloudy
4:53 AM 75.9 °F - 71.1 °F 85% 30.13 in 10.0 mi SSE 5.8 mph - N/A   Mostly Cloudy
5:53 AM 73.9 °F - 70.0 °F 87% 30.14 in 10.0 mi ESE 3.5 mph - N/A   Scattered Clouds
6:53 AM 75.0 °F - 71.1 °F 87% 30.17 in 10.0 mi Calm Calm - N/A   Scattered Clouds
7:02 AM 75.2 °F - 71.6 °F 89% 30.17 in 10.0 mi ESE 3.5 mph - N/A   Mostly Cloudy
7:15 AM 77.0 °F - 71.6 °F 83% 30.17 in 10.0 mi ESE 4.6 mph - N/A   Scattered Clouds
7:53 AM 79.0 °F - 70.0 °F 74% 30.18 in 10.0 mi ESE 9.2 mph - N/A   Clear
8:34 AM 80.6 °F 83.9 °F 69.8 °F 70% 30.19 in 10.0 mi ESE 8.1 mph - N/A   Mostly Cloudy
8:53 AM 80.1 °F 83.2 °F 70.0 °F 71% 30.19 in 10.0 mi ESE 8.1 mph 17.3 mph N/A   Mostly Cloudy
9:46 AM 82.4 °F 86.3 °F 69.8 °F 66% 30.20 in 10.0 mi East 10.4 mph 18.4 mph N/A   Mostly Cloudy
9:53 AM 82.0 °F 85.5 °F 69.1 °F 65% 30.20 in 10.0 mi East 13.8 mph - N/A   Scattered Clouds
10:11 AM 82.4 °F 86.3 °F 69.8 °F 66% 30.19 in 10.0 mi ESE 12.7 mph 19.6 mph N/A   Mostly Cloudy
10:53 AM 82.9 °F 86.5 °F 69.1 °F 63% 30.19 in 10.0 mi ESE 12.7 mph 19.6 mph N/A   Mostly Cloudy
11:06 AM 82.4 °F 86.3 °F 69.8 °F 66% 30.18 in 10.0 mi ESE 10.4 mph 20.7 mph N/A   Mostly Cloudy
11:44 AM 82.4 °F 86.3 °F 69.8 °F 66% 30.18 in 10.0 mi ESE 18.4 mph 23.0 mph N/A   Mostly Cloudy
11:53 AM 84.0 °F 87.8 °F 69.1 °F 61% 30.18 in 10.0 mi ESE 15.0 mph 24.2 mph N/A   Scattered Clouds
12:53 PM 84.0 °F 87.0 °F 68.0 °F 58% 30.18 in 10.0 mi ESE 15.0 mph 21.9 mph N/A   Scattered Clouds
1:53 PM 84.9 °F 89.4 °F 70.0 °F 61% 30.17 in 10.0 mi ESE 11.5 mph 23.0 mph N/A   Mostly Cloudy
2:53 PM 84.9 °F 89.4 °F 70.0 °F 61% 30.16 in 10.0 mi SE 16.1 mph 20.7 mph N/A   Mostly Cloudy
3:44 PM 82.4 °F 86.3 °F 69.8 °F 66% 30.14 in 10.0 mi ESE 9.2 mph 21.9 mph N/A   Mostly Cloudy
3:51 PM 82.4 °F 86.3 °F 69.8 °F 66% 30.14 in 10.0 mi East 13.8 mph 21.9 mph N/A   Mostly Cloudy
3:53 PM 82.9 °F 87.0 °F 70.0 °F 65% 30.14 in 10.0 mi East 12.7 mph 21.9 mph N/A   Mostly Cloudy
4:17 PM 82.4 °F 87.2 °F 71.6 °F 70% 30.13 in 10.0 mi East 9.2 mph - N/A   Mostly Cloudy
4:39 PM 78.8 °F - 71.6 °F 78% 30.14 in 2.5 mi SE 11.5 mph 21.9 mph 0.10 in Rain Rain
4:43 PM 78.8 °F - 71.6 °F 78% 30.14 in 1.8 mi ESE 8.1 mph 21.9 mph 0.14 in Rain Heavy Rain
4:49 PM 78.8 °F - 71.6 °F 78% 30.13 in 3.0 mi ESE 9.2 mph - 0.14 in Rain Light Rain
4:50 PM 78.1 °F - 72.0 °F 81% 30.13 in 6.0 mi ESE 9.2 mph - 0.14 in Rain Light Rain
4:57 PM 80.6 °F 85.4 °F 73.4 °F 79% 30.13 in 10.0 mi ESE 10.4 mph - 0.00 in   Mostly Cloudy
5:29 PM 80.6 °F 84.6 °F 71.6 °F 74% 30.13 in 10.0 mi ESE 11.5 mph 20.7 mph 0.00 in   Mostly Cloudy
5:53 PM 80.1 °F 83.6 °F 71.1 °F 74% 30.13 in 10.0 mi ESE 12.7 mph 20.7 mph 0.00 in   Mostly Cloudy
6:53 PM 80.1 °F 83.6 °F 71.1 °F 74% 30.12 in 10.0 mi ESE 11.5 mph 23.0 mph N/A   Mostly Cloudy
7:53 PM 79.0 °F - 71.1 °F 77% 30.13 in 10.0 mi ESE 9.2 mph - N/A   Mostly Cloudy
8:21 PM 78.8 °F - 71.6 °F 78% 30.14 in 10.0 mi ESE 6.9 mph - N/A   Scattered Clouds
8:53 PM 79.0 °F - 71.1 °F 77% 30.14 in 10.0 mi ESE 8.1 mph - 0.00 in Rain Light Rain
9:53 PM 78.1 °F - 71.1 °F 79% 30.15 in 10.0 mi ESE 6.9 mph - 0.00 in   Scattered Clouds
10:17 PM 78.8 °F - 71.6 °F 78% 30.16 in 10.0 mi SE 5.8 mph - N/A   Mostly Cloudy
10:28 PM 78.8 °F - 71.6 °F 78% 30.16 in 10.0 mi SE 6.9 mph - N/A   Scattered Clouds
10:53 PM 78.1 °F - 71.1 °F 79% 30.17 in 10.0 mi East 8.1 mph - N/A   Mostly Cloudy
11:53 PM 75.9 °F - 70.0 °F 82% 30.17 in 10.0 mi SE 5.8 mph - N/A   Clear